Flag for United Kingdom Weather past 2 weeks in Leeds, England, United Kingdom

Now
61 °F

Scattered clouds.


Feels Like: 61 °F
Forecast: 49 / 70 °F
Wind: 10 mph from Northwest

Location: Leeds And Bradford

Current Time: Sep 1, 2014 at 2:44:25 PM

Latest Report: Sep 1, 2014 at 2:20 PM


Visibility: N/A

Pressure: 30.09 "Hg

Humidity: 68%

Dew point: 50 °F

Location of LeedsLocation

Historic Weather in Leeds — Graph

°F

Leeds temperature yesterday

Maximum temperature yesterday: 64 °F (at 1:50 PM)
Minimum temperature yesterday: 50 °F (at 3:50 AM)
Average temperature yesterday: 57 °F

Past Weeks' High & Low Weather Summary

 TemperatureHumidityPressure
High66 °F (Aug 28, 11:50 AM)100% (Aug 20, 2:50 AM)30.09 "Hg (Aug 20, 2:50 AM)
Low43 °F (Aug 20, 4:50 AM)42% (Aug 24, 4:20 PM)29.59 "Hg (Aug 17, 3:50 PM)
Average54 °F81%29.86 "Hg
* Reported Aug 17 1:20 PM — Sep 1 1:20 PM, Leeds, Weather by CustomWeather, © 2014

Note: Actual official high and low records may vary slightly from our data, if they occured in-between our weather recording intervals... More about our weather records

Advertising

Leeds weather history for previous 24 hours

 ConditionsComfort  
Time TempWeatherWind HumidityBarometerVisibility
1:20 PM
Sep 1
63 °FScattered clouds.15 mph59%30.09 "HgN/A
12:50 PM64 °FScattered clouds.12 mph60%30.09 "HgN/A
12:20 PM63 °FScattered clouds.13 mph64%30.09 "HgN/A
11:50 AM63 °FScattered clouds.13 mph68%30.09 "HgN/A
11:20 AM61 °FScattered clouds.15 mph72%30.09 "HgN/A
10:50 AM63 °FScattered clouds.14 mph73%30.07 "HgN/A
10:20 AM61 °FScattered clouds.13 mph77%30.07 "HgN/A
9:50 AM61 °FScattered clouds.7 mph88%30.07 "HgN/A
9:20 AM59 °FScattered clouds.10 mph94%30.07 "HgN/A
8:50 AM57 °FBroken clouds.7 mph100%30.07 "HgN/A
8:20 AM57 °FMore clouds than sun.7 mph94%30.07 "HgN/A
7:50 AM55 °FFog.5 mph100%30.04 "Hg6 mi
7:20 AM55 °FFog.6 mph100%30.04 "Hg2 mi
6:50 AM54 °FFog.7 mph100%30.04 "Hg2 mi
6:20 AM54 °FFog.6 mph100%30.04 "Hg2 mi
5:50 AM54 °FFog.6 mph100%30.04 "Hg2 mi
5:20 AM54 °FPassing clouds.5 mph100%30.04 "Hg2 mi
4:50 AM54 °FPassing clouds.5 mph100%30.04 "Hg2 mi
4:20 AM55 °FPartly cloudy.5 mph88%30.04 "HgN/A
3:50 AM55 °FPartly cloudy.2 mph88%30.04 "HgN/A
3:20 AM55 °FPartly cloudy.1 mph88%30.04 "HgN/A
2:50 AM55 °FPartly cloudy.3 mph88%30.04 "HgN/A
2:20 AM55 °FPassing clouds.3 mph88%30.04 "HgN/A
1:50 AM55 °FClear.2 mph82%30.07 "Hg10 mi
1:20 AM55 °FClear.3 mph82%30.07 "Hg10 mi
12:50 AM55 °FPassing clouds.5 mph82%30.07 "HgN/A
12:20 AM55 °FPassing clouds.3 mph77%30.07 "HgN/A
11:50 PM
Aug 31
54 °FPassing clouds.5 mph82%30.07 "HgN/A
11:20 PM54 °FClear.2 mph82%30.07 "Hg10 mi
10:50 PM54 °FClear.3 mph82%30.07 "Hg10 mi
10:20 PM55 °FClear.6 mph82%30.07 "Hg10 mi
9:50 PM55 °FClear.5 mph82%30.07 "Hg10 mi
9:20 PM55 °FClear.5 mph82%30.07 "Hg10 mi
8:50 PM55 °FSunny.5 mph82%30.07 "Hg10 mi
8:20 PM57 °FSunny.3 mph77%30.07 "Hg10 mi
7:50 PM59 °FPassing clouds.6 mph72%30.07 "HgN/A
7:20 PM61 °FPassing clouds.8 mph68%30.04 "HgN/A
6:50 PM61 °FPassing clouds.12 mph68%30.04 "HgN/A
6:20 PM63 °FPassing clouds.10 mph64%30.04 "HgN/A
5:50 PM63 °FPassing clouds.9 mph64%30.04 "HgN/A
5:20 PM64 °FPassing clouds.12 mph60%30.04 "HgN/A
4:50 PM64 °FPassing clouds.10 mph60%30.04 "HgN/A
4:20 PM64 °FScattered clouds.12 mph60%30.04 "HgN/A
3:50 PM64 °FScattered clouds.13 mph60%30.04 "HgN/A
3:20 PM64 °FScattered clouds.13 mph52%30.04 "HgN/A
2:50 PM64 °FScattered clouds.13 mph52%30.04 "HgN/A
2:20 PM64 °FScattered clouds.13 mph52%30.04 "HgN/A
Weather by CustomWeather, © 2014

See weather overviewHow to use our weather pages